Location: St. Louis
(38.6270°N, 90.1994°W)
Time: 00:48:04
(UTC-06:00)

Courier 1B Rocket - Pass Details

Date: 04 December 2021
Orbit: 920 x 1202 km, 28.2° (Epoch: 16 January)

Event Time Altitude Azimuth Distance (km) Brightness Sun altitude
Rises 21:29:41 0° 224° (SW) 3,723 - -55.7°
Reaches altitude 10° 21:33:06 10° 208° (SSW) 2,725 - -56.4°
Maximum altitude 21:37:47 21° 162° (SSE) 2,005 - -57.2°
Drops below altitude 10° 21:42:19 10° 116° (ESE) 2,631 - -58.1°
Sets 21:45:32 0° 101° (E) 3,557 - -58.6°
